Regional Weather Roundup
Issued by NWS

Home | Current Version | Previous Version | Graphics & Text | Print | Product List | Glossary On
Versions: 1 2 3 4 5 6 7 8 9 10 11 12 13 14 15 16 17 18 19 20 21 22 23 24 25 26 27 28 29 30 31 32 33 34 35 36 37 38 39 40 41 42 43 44 45 46 47 48 49 50
000
ASUS43 KDTX 281201
RWRMI
MICHIGAN HOURLY REGIONAL WEATHER ROUNDUP
NATIONAL WEATHER SERVICE DETROIT/PONTIAC MI
800 AM EDT FRI JUL 28 2017

NOTE: "FAIR" INDICATES FEW OR NO CLOUDS BELOW 12,000 FEET WITH NO
SIGNIFICANT WEATHER AND/OR OBSTRUCTION TO VISIBILITY.

MIZ047>049-052>055-059>063-066>070-074>076-081>083-281300-
SOUTHEAST LOWER MICHIGAN

CITY           SKY/WX    TMP DP  RH WIND       PRES   REMARKS
ADRIAN         CLOUDY    64  59  83 NE9       29.94S
6HR MIN TEMP:  62; 6HR MAX TEMP:  68;

ALMA           CLOUDY    62  58  88 N6        30.01S
ANN ARBOR      PTSUNNY   64  61  90 N8        29.94S
BAD AXE        CLOUDY    63  60  89 N7        30.02R
6HR MIN TEMP:  57; 6HR MAX TEMP:  63;

CARO           CLOUDY    63  59  88 N8        30.01R
DETROIT CITY   PTSUNNY   66  61  84 N9        29.94R
6HR MIN TEMP:  64; 6HR MAX TEMP:  66;

DETROIT        CLOUDY    65  61  87 N7        29.94R
6HR MIN TEMP:  64; 6HR MAX TEMP:  67;

FLINT          CLOUDY    63  59  87 NE12      29.98S
6HR MIN TEMP:  61; 6HR MAX TEMP:  63;

GROSSE ILE     CLOUDY    67  62  83 N8        29.92S
6HR MIN TEMP:  66; 6HR MAX TEMP:  68;

HILLSDALE      CLOUDY    61  57  88 N6        29.95R
HOWELL         PTSUNNY   61  59  94 NE5       29.97S
6HR MIN TEMP:  60; 6HR MAX TEMP:  64;


CITY           SKY/WX    TMP DP  RH WIND       PRES   REMARKS
JACKSON        CLOUDY    63  59  87 N7        29.96S
6HR MIN TEMP:  61; 6HR MAX TEMP:  67; 6HR PCP: TRACE;

LAMBERTVILLE   CLOUDY    64  60  88 NE7       29.92R
6HR MIN TEMP:  63; 6HR MAX TEMP:  66;

LANSING        CLOUDY    62  58  86 N7        29.99S
6HR MIN TEMP:  61; 6HR MAX TEMP:  64;

LAPEER         FAIR      62  60  93 NE7       29.99R
6HR MIN TEMP:  58; 6HR MAX TEMP:  62;

MASON          CLOUDY    61  59  94 N7        29.97S
MONROE         CLOUDY    64  61  90 N7        29.92R
6HR MIN TEMP:  61; 6HR MAX TEMP:  65;

PONTIAC        CLOUDY    63  61  93 NE10      29.95S
6HR MIN TEMP:  62; 6HR MAX TEMP:  64;

PORT HOPE        N/A     67  60  78 NE17      30.00R
6HR MIN TEMP:  67; 6HR MAX TEMP:  68;

PORT HURON     CLOUDY    68  61  77 NE8       29.96R
TRI CITIES     PTSUNNY   64  63  96 N8        30.01S
6HR MIN TEMP:  62; 6HR MAX TEMP:  64;

MIDLAND        FAIR      63  60  91 E5        29.99F
6HR MIN TEMP:  57; 6HR MAX TEMP:  63;

TROY           CLOUDY    66  61  82 N9        29.97R
SAGINAW HB     CLOUDY    63  61  94 N5        30.00R
$$
MIZ043>046-050>051-056>058-064>065-071>073-077>080-281300-
SOUTHWEST LOWER MICHIGAN

CITY           SKY/WX    TMP DP  RH WIND       PRES   REMARKS
BATTLE CREEK   CLOUDY    64  59  83 NE9       29.98R
6HR MIN TEMP:  62; 6HR MAX TEMP:  68;

BENTON HARBOR  MOSUNNY   66  59  78 E7        29.96R
6HR MIN TEMP:  64; 6HR MAX TEMP:  69;

BIG RAPIDS     MOSUNNY   62  57  85 NW8       30.03R
6HR MIN TEMP:  60; 6HR MAX TEMP:  64;

COLDWATER      CLOUDY    64  61  91 NE8       29.96R
6HR MIN TEMP:  63; 6HR MAX TEMP:  71;

FREMONT        PTSUNNY   63  61  94 CALM      30.00S
HOLLAND        CLOUDY    66  59  78 NE3       30.00R
6HR MIN TEMP:  64; 6HR MAX TEMP:  70;

GRAND RAPIDS   CLOUDY    64  62  93 NE8       29.99R
6HR MIN TEMP:  63; 6HR MAX TEMP:  66;

IONIA          FAIR      63  60  91 N10G16    29.99S
6HR MIN TEMP:  61; 6HR MAX TEMP:  64;

KALAMAZOO      MOSUNNY   65  57  75 NE7       29.98R
6HR MIN TEMP:  64; 6HR MAX TEMP:  69;

LUDINGTON      MOSUNNY   60  58  93 NE5       30.03R
6HR MIN TEMP:  56; 6HR MAX TEMP:  62;

MARSHALL       CLOUDY    63  61  94 NE3       29.96S
6HR MIN TEMP:  62; 6HR MAX TEMP:  67;

MOUNT PLEASANT MOSUNNY   63  58  86 E8        29.98F
6HR MIN TEMP:  60; 6HR MAX TEMP:  63;

MUSKEGON       MOSUNNY   67  60  78 N9        30.00S
6HR MIN TEMP:  64; 6HR MAX TEMP:  70;

SOUTH HAVEN    MOSUNNY   64  61  90 NE6       29.97R
$$
MIZ016>042-281300-
NORTHERN LOWER MICHIGAN

CITY           SKY/WX    TMP DP  RH WIND       PRES   REMARKS
ALPENA         MOSUNNY   65  61  87 E8        30.07R
6HR MIN TEMP:  59; 6HR MAX TEMP:  65;

BEAVER ISLAND  PTSUNNY   64  58  82 E6        30.07R
6HR MIN TEMP:  58; 6HR MAX TEMP:  64;

BELLAIRE       PTSUNNY   59  55  88 CALM      30.05R
6HR MIN TEMP:  52; 6HR MAX TEMP:  59;

CADILLAC       SUNNY     61  56  82 N3        30.05R
CHARLEVOIX     MOSUNNY   66  57  73 E10       30.08R
6HR MIN TEMP:  62; 6HR MAX TEMP:  66;

FRANKFORT      MOSUNNY   64  62  96 CALM      30.04S
GAYLORD        PTSUNNY   61  55  81 NE6       30.07R
6HR MIN TEMP:  60; 6HR MAX TEMP:  62;

GRAYLING       SUNNY     56  53  90 CALM      30.06R
6HR MIN TEMP:  49; 6HR MAX TEMP:  56;

HARBOR SPRINGS PTSUNNY   63  58  82 NE9       30.06S
HOUGHTON LAKE  MOSUNNY   59  55  87 NE5       30.05R
6HR MIN TEMP:  54; 6HR MAX TEMP:  59;

MANISTEE       SUNNY     64  59  83 E6        30.03S
OSCODA         MOSUNNY   66  62  87 NE7       30.03R
6HR MIN TEMP:  58; 6HR MAX TEMP:  66;

PELLSTON       CLOUDY    58  57  97 CALM      30.08R
6HR MIN TEMP:  53; 6HR MAX TEMP:  59;

ROGERS CITY    MOSUNNY   64  57  78 E8        30.08R
TRAVERSE CITY  PTSUNNY   60  58  92 CALM      30.04R
6HR MIN TEMP:  57; 6HR MAX TEMP:  63;

$$
MIZ007>008-015-281300-
EASTERN UPPER MICHIGAN

CITY           SKY/WX    TMP DP  RH WIND       PRES   REMARKS
KINROSS        PTSUNNY   62  53  72 E10       30.10R
6HR MIN TEMP:  59; 6HR MAX TEMP:  62;

MACKINAC ISLAN PTSUNNY   65  58  76 E12G18    30.08R
6HR MIN TEMP:  60; 6HR MAX TEMP:  65;

NEWBERRY       MOSUNNY   58  57  97 N5        30.10R
6HR MIN TEMP:  52; 6HR MAX TEMP:  58;

S. S. MARIE    MOSUNNY   62  53  72 E6        30.10R
6HR MIN TEMP:  61; 6HR MAX TEMP:  65;

MUNISING         N/A     56  54  93 S3        30.11R
6HR MIN TEMP:  52; 6HR MAX TEMP:  61;

$$
MIZ004>006-011>014-085-281300-
CENTRAL UPPER MICHIGAN

CITY           SKY/WX    TMP DP  RH WIND       PRES   REMARKS
MANISTIQUE     MOSUNNY   59  56  90 N5        30.08R
6HR MIN TEMP:  55; 6HR MAX TEMP:  59;

ESCANABA       SUNNY     60  55  83 N5        30.08R
6HR MIN TEMP:  56; 6HR MAX TEMP:  60;

MENOMINEE      SUNNY     58  54  86 N7        30.08R
6HR MIN TEMP:  54; 6HR MAX TEMP:  59;

SAWYER-GWINN   SUNNY     57  54  88 N6        30.13R
$$
MIZ001>003-009>011-084-281300-
WESTERN UPPER MICHIGAN

CITY           SKY/WX    TMP DP  RH WIND       PRES   REMARKS
HOUGHTON       SUNNY     62  55  77 E3        30.13R
6HR MIN TEMP:  52; 6HR MAX TEMP:  62;

COPPER HARBOR    N/A     59  54  83 W6        30.11S
6HR MIN TEMP:  54; 6HR MAX TEMP:  59;

IRONWOOD       SUNNY     54  51  90 CALM      30.14S
6HR MIN TEMP:  47; 6HR MAX TEMP:  56;

$$

ABBREVIATIONS USED IN REMARKS
   TC - TEMPERATURE IN CELSIUS
  WCI - WIND CHILL INDEX
   HX - HEAT INDEX
  VSB - VISIBILITY




USA.gov is the U.S. government's official web portal to all federal, state and local government web resources and services.